Regional Weather Roundup
Issued by NWS

Home | Current Version | Previous Version | Graphics & Text | Print | Product List | Glossary Off
Versions: 1 2 3 4 5 6 7 8 9 10 11 12 13 14 15 16 17 18 19 20 21 22 23 24 25 26 27 28 29 30 31 32 33 34 35 36 37 38 39 40 41 42 43 44 45 46 47 48 49 50

000
ASUS43 KLMK 300110
RWRKY
KENTUCKY REGIONAL WEATHER ROUNDUP
NATIONAL WEATHER SERVICE LOUISVILLE KY
900 PM EDT MON AUG 29 2016

NOTE "FAIR" INDICATES FEW OR NO CLOUDS BELOW 12,000 FEET
WITH NO SIGNIFICANT WEATHER AND/OR OBSTRUCTIONS TO VISIBILITY.

KYZ001>023-026-027-061>063-070>075-300200-
WESTERN AND SOUTH CENTRAL KENTUCKY

CITY           SKY/WX    TMP DP  RH WIND       PRES   REMARKS
PADUCAH        CLEAR     82  73  74 NE6       30.08R
HENDERSON      CLEAR     81  70  69 NE6       30.09R
OWENSBORO      CLEAR     85  73  67 NE6       30.11R HX  91
HOPKINSVILLE   CLEAR     82  76  80 N5        30.08R
BOWLING GREEN  CLEAR     82  72  71 NE5       30.10R
GLASGOW        CLEAR     76  73  88 NE3       30.11S
$$

KYZ024-025-028>034-038-045-046-053-300200-
NORTH CENTRAL KENTUCKY

CITY           SKY/WX    TMP DP  RH WIND       PRES   REMARKS
LOUISVILLE/SDF PTCLDY    85  68  56 NE6       30.11S
LOUISVILLE/LOU CLEAR     84  70  62 NE5       30.13R
FORT KNOX      CLEAR     81  71  71 NE5       30.11R
$$

KYZ035>037-039>044-047>052-055>060-089>105-300200-
NORTHEAST KENTUCKY

CITY           SKY/WX    TMP DP  RH WIND       PRES   REMARKS
LEXINGTON      CLEAR     79  70  74 NE6       30.15S
COVINGTON      PTCLDY    83  71  67 E8        30.17R
FRANKFORT      CLEAR     80  72  76 N3        30.13S
$$

KYZ054-064>069-076>088-106>120-300200-
SOUTHEAST KENTUCKY

CITY           SKY/WX    TMP DP  RH WIND       PRES   REMARKS
JACKSON        PTCLDY    72  68  87 CALM      30.17R
LONDON         PTCLDY    77  68  73 NE5       30.15R
SOMERSET       CLEAR     75  64  69 CALM      30.14S
MIDDLESBORO    PTCLDY    74  71  88 CALM      30.15S
MONTICELLO     PTCLDY   N/A N/A N/A W7        30.15R
$$




USA.gov is the U.S. government's official web portal to all federal, state and local government web resources and services.